Location: DARK SKY Beskydy - Park tmavé oblohy, www.darkskybeskydy.cz
(49.4926°N, 18.5016°E)
Time: 10:29:05
(UTC+02:00)

Transit 4A - Pass Details

Date: 04 March 2024
Orbit: 871 x 971 km, 66.8° (Epoch: 24 April)

Event Time Altitude Azimuth Distance (km) Brightness Sun altitude
Exits shadow 02:43:58 17° 340° (NNW) 2,094 9.8 -34.5°
Maximum altitude 02:44:09 17° 343° (NNW) 2,092 9.9 -34.5°
Drops below altitude 10° 02:48:00 10° 24° (NNE) 2,561 10.8 -34.0°
Sets 02:51:25 0° 43° (NE) 3,488 11.9 -33.5°
